| time (UTC) | temp F | wind direction | speed MPH | gust MPH | rain 1hr in | rain 24hr in | rain mn in | humidity % | barometer mb |
| 20260503005909 | 42 | 102 | 2.0 | 2.0 | 0.00 | 0.12 | 0.12 | 80 | 1010.6 |
| 20260503005407 | 42 | 305 | 4.0 | 6.0 | 0.00 | 0.12 | 0.12 | 80 | 1010.9 |
| 20260503004902 | 42 | 347 | 6.0 | 8.0 | 0.00 | 0.12 | 0.12 | 81 | 1010.9 |
| 20260503004400 | 42 | 46 | 4.0 | 4.0 | 0.00 | 0.12 | 0.12 | 81 | 1010.9 |
| 20260503003857 | 42 | 153 | 0.0 | 0.0 | 0.00 | 0.12 | 0.12 | 81 | 1010.9 |
| 20260503003354 | 42 | 234 | 2.0 | 2.0 | 0.00 | 0.12 | 0.12 | 80 | 1010.9 |
| 20260503002851 | 42 | 267 | 4.0 | 7.0 | 0.00 | 0.12 | 0.12 | 80 | 1010.9 |
| 20260503002349 | 42 | 299 | 4.0 | 6.0 | 0.00 | 0.12 | 0.12 | 80 | 1010.6 |
| 20260503001844 | 43 | 282 | 4.0 | 6.0 | 0.00 | 0.12 | 0.12 | 80 | 1010.3 |
| 20260503001341 | 43 | 41 | 3.0 | 3.0 | 0.00 | 0.12 | 0.12 | 79 | 1010.3 |
| 20260503000838 | 43 | 73 | 2.0 | 3.0 | 0.00 | 0.12 | 0.12 | 79 | 1010.3 |
| 20260503000336 | 43 | 229 | 5.0 | 6.0 | 0.00 | 0.12 | 0.12 | 79 | 1010.3 |
| 20260502235833 | 43 | 255 | 3.0 | 4.0 | 0.00 | 0.12 | 0.12 | 79 | 1009.9 |
| 20260502235330 | 43 | 284 | 2.0 | 3.0 | 0.00 | 0.12 | 0.12 | 79 | 1010.3 |
| 20260502234827 | 43 | 276 | 5.0 | 8.0 | 0.00 | 0.12 | 0.12 | 78 | 1009.9 |
| 20260502234323 | 43 | 138 | 1.0 | 2.0 | 0.00 | 0.12 | 0.12 | 77 | 1010.3 |
| 20260502233820 | 44 | 13 | 3.0 | 4.0 | 0.00 | 0.12 | 0.12 | 76 | 1009.9 |
| 20260502233316 | 44 | 159 | 2.0 | 3.0 | 0.00 | 0.12 | 0.12 | 74 | 1009.9 |
| 20260502232813 | 44 | 256 | 7.0 | 9.0 | 0.00 | 0.12 | 0.12 | 74 | 1009.9 |
| 20260502232310 | 45 | 298 | 2.0 | 2.0 | 0.00 | 0.12 | 0.12 | 74 | 1009.9 |
| 20260502231806 | 45 | 169 | 1.0 | 1.0 | 0.00 | 0.12 | 0.12 | 73 | 1009.6 |
| 20260502231304 | 46 | 269 | 2.0 | 2.0 | 0.00 | 0.12 | 0.12 | 72 | 1009.6 |
| 20260502230802 | 46 | 313 | 3.0 | 4.0 | 0.00 | 0.12 | 0.12 | 72 | 1009.6 |
| 20260502230300 | 46 | 271 | 6.0 | 8.0 | 0.00 | 0.12 | 0.12 | 71 | 1009.6 |
| 20260502225756 | 47 | 292 | 6.0 | 8.0 | 0.00 | 0.12 | 0.12 | 70 | 1009.2 |
| 20260502225253 | 47 | 359 | 8.0 | 10.0 | 0.00 | 0.12 | 0.12 | 69 | 1009.2 |
| 20260502224749 | 48 | 284 | 2.0 | 2.0 | 0.00 | 0.12 | 0.12 | 68 | 1008.9 |
| 20260502224246 | 50 | 293 | 6.0 | 8.0 | 0.00 | 0.12 | 0.12 | 66 | 1008.9 |
| 20260502223744 | 50 | 299 | 3.0 | 3.0 | 0.00 | 0.12 | 0.12 | 69 | 1009.2 |
| 20260502223242 | 50 | 112 | 0.0 | 1.0 | 0.00 | 0.12 | 0.12 | 66 | 1008.9 |
| 20260502222739 | 49 | 281 | 4.0 | 4.0 | 0.00 | 0.12 | 0.12 | 66 | 1008.9 |
| 20260502222236 | 48 | 150 | 0.0 | 0.0 | 0.00 | 0.12 | 0.12 | 67 | 1008.9 |
| 20260502221732 | 49 | 342 | 1.0 | 2.0 | 0.00 | 0.12 | 0.12 | 66 | 1008.9 |
| 20260502221229 | 49 | 250 | 5.0 | 7.0 | 0.00 | 0.12 | 0.12 | 62 | 1008.9 |
| 20260502220725 | 49 | 189 | 1.0 | 1.0 | 0.00 | 0.12 | 0.12 | 62 | 1008.6 |
| 20260502220221 | 49 | 159 | 0.0 | 1.0 | 0.00 | 0.12 | 0.12 | 62 | 1008.9 |
| 20260502215718 | 49 | 283 | 2.0 | 2.0 | 0.00 | 0.12 | 0.12 | 62 | 1008.9 |
| 20260502215215 | 49 | 0 | 2.0 | 2.0 | 0.00 | 0.12 | 0.12 | 62 | 1008.9 |
| 20260502214713 | 49 | 234 | 4.0 | 6.0 | 0.00 | 0.12 | 0.12 | 62 | 1008.9 |
| 20260502214210 | 49 | 246 | 3.0 | 3.0 | 0.00 | 0.12 | 0.12 | 63 | 1008.9 |
| 20260502213707 | 49 | 232 | 2.0 | 3.0 | 0.00 | 0.12 | 0.12 | 61 | 1008.9 |
| 20260502213204 | 49 | 149 | 2.0 | 2.0 | 0.00 | 0.12 | 0.12 | 60 | 1008.9 |
| 20260502212703 | 49 | 258 | 5.0 | 6.0 | 0.00 | 0.12 | 0.12 | 61 | 1009.2 |
| 20260502212200 | 49 | 342 | 2.0 | 2.0 | 0.00 | 0.12 | 0.12 | 61 | 1009.2 |
| 20260502211656 | 49 | 260 | 4.0 | 4.0 | 0.00 | 0.12 | 0.12 | 62 | 1009.2 |
| 20260502211153 | 49 | 222 | 3.0 | 3.0 | 0.00 | 0.12 | 0.12 | 61 | 1008.9 |
| 20260502210650 | 49 | 225 | 8.0 | 10.0 | 0.00 | 0.12 | 0.12 | 62 | 1008.9 |
| 20260502210147 | 50 | 222 | 7.0 | 10.0 | 0.00 | 0.12 | 0.12 | 62 | 1009.2 |
| 20260502205644 | 51 | 234 | 4.0 | 6.0 | 0.00 | 0.12 | 0.12 | 61 | 1008.9 |
| 20260502205141 | 51 | 265 | 4.0 | 4.0 | 0.00 | 0.12 | 0.12 | 61 | 1008.9 |
| 20260502204637 | 50 | 273 | 3.0 | 4.0 | 0.00 | 0.12 | 0.12 | 62 | 1008.9 |
| 20260502204135 | 51 | 284 | 6.0 | 8.0 | 0.00 | 0.12 | 0.12 | 61 | 1008.9 |
| 20260502203632 | 51 | 205 | 2.0 | 3.0 | 0.00 | 0.12 | 0.12 | 64 | 1008.9 |
| 20260502203130 | 50 | 155 | 2.0 | 2.0 | 0.00 | 0.12 | 0.12 | 65 | 1008.9 |
| 20260502202625 | 49 | 170 | 3.0 | 3.0 | 0.00 | 0.12 | 0.12 | 63 | 1009.2 |
| 20260502202123 | 49 | 166 | 1.0 | 2.0 | 0.00 | 0.12 | 0.12 | 66 | 1009.2 |
| 20260502201620 | 49 | 203 | 1.0 | 1.0 | 0.00 | 0.12 | 0.12 | 64 | 1009.2 |
| 20260502201116 | 49 | 145 | 5.0 | 7.0 | 0.00 | 0.12 | 0.12 | 64 | 1009.2 |
| 20260502200612 | 49 | 47 | 1.0 | 2.0 | 0.00 | 0.12 | 0.12 | 69 | 1009.2 |
| 20260502200110 | 50 | 198 | 4.0 | 6.0 | 0.00 | 0.12 | 0.12 | 68 | 1009.2 |
| 20260502195608 | 50 | 194 | 4.0 | 4.0 | 0.00 | 0.12 | 0.12 | 69 | 1009.2 |
| 20260502195103 | 51 | 274 | 5.0 | 6.0 | 0.00 | 0.12 | 0.12 | 76 | 1009.2 |
| 20260502194600 | 48 | 60 | 2.0 | 2.0 | 0.00 | 0.12 | 0.12 | 81 | 1009.2 |
| 20260502194056 | 47 | 158 | 0.0 | 0.0 | 0.00 | 0.12 | 0.12 | 86 | 1009.6 |
| 20260502193554 | 46 | 111 | 0.0 | 1.0 | 0.00 | 0.12 | 0.12 | 87 | 1009.6 |
| 20260502193050 | 46 | 75 | 0.0 | 1.0 | 0.00 | 0.12 | 0.12 | 88 | 1009.6 |
| 20260502192546 | 46 | 82 | 1.0 | 2.0 | 0.00 | 0.12 | 0.12 | 88 | 1009.6 |
| 20260502192043 | 47 | 68 | 1.0 | 1.0 | 0.00 | 0.12 | 0.12 | 87 | 1009.6 |
| 20260502191540 | 47 | 74 | 1.0 | 2.0 | 0.00 | 0.12 | 0.12 | 87 | 1009.6 |
| 20260502191038 | 47 | 140 | 1.0 | 1.0 | 0.00 | 0.12 | 0.12 | 88 | 1009.6 |
| 20260502190536 | 46 | 110 | 1.0 | 1.0 | 0.00 | 0.12 | 0.12 | 87 | 1009.6 |
| 20260502190033 | 46 | 78 | 1.0 | 2.0 | 0.00 | 0.12 | 0.12 | 88 | 1009.6 |
| 20260502185527 | 46 | 98 | 0.0 | 1.0 | 0.00 | 0.12 | 0.12 | 89 | 1009.6 |
| 20260502185024 | 47 | 27 | 4.0 | 4.0 | 0.00 | 0.12 | 0.12 | 87 | 1009.6 |
| 20260502184520 | 50 | 25 | 3.0 | 3.0 | 0.00 | 0.12 | 0.12 | 85 | 1009.9 |
| 20260502184016 | 48 | 153 | 3.0 | 3.0 | 0.00 | 0.12 | 0.12 | 79 | 1009.9 |
| 20260502183513 | 47 | 105 | 1.0 | 1.0 | 0.00 | 0.12 | 0.12 | 82 | 1009.6 |
| 20260502183009 | 46 | 158 | 2.0 | 2.0 | 0.00 | 0.12 | 0.12 | 86 | 1009.9 |
| 20260502182503 | 47 | 160 | 2.0 | 2.0 | 0.00 | 0.12 | 0.12 | 83 | 1009.9 |
| 20260502182000 | 46 | 130 | 0.0 | 0.0 | 0.00 | 0.12 | 0.12 | 79 | 1009.9 |
| 20260502181458 | 46 | 79 | 0.0 | 1.0 | 0.00 | 0.12 | 0.12 | 79 | 1009.9 |
| 20260502180957 | 46 | 299 | 2.0 | 3.0 | 0.00 | 0.12 | 0.12 | 78 | 1009.9 |
| 20260502180453 | 45 | 293 | 4.0 | 6.0 | 0.00 | 0.12 | 0.12 | 81 | 1009.9 |
| 20260502170413 | 43 | 152 | 0.0 | 0.0 | 0.00 | 0.12 | 0.12 | 92 | 1009.9 |
| 20260502163855 | 44 | 66 | 1.0 | 1.0 | 0.07 | 0.12 | 0.12 | 95 | 1009.9 |
| 20260502163352 | 43 | 25 | 2.0 | 2.0 | 0.05 | 0.11 | 0.11 | 95 | 1010.3 |
| 20260502162850 | 43 | 144 | 0.0 | 0.0 | 0.05 | 0.11 | 0.11 | 95 | 1009.9 |
| 20260502162346 | 43 | 138 | 0.0 | 0.0 | 0.07 | 0.10 | 0.10 | 95 | 1009.6 |
| 20260502161843 | 43 | 153 | 3.0 | 3.0 | 0.07 | 0.10 | 0.10 | 95 | 1009.9 |
| 20260502161339 | 43 | 166 | 2.0 | 3.0 | 0.00 | 0.09 | 0.09 | 95 | 1009.9 |
| 20260502160837 | 43 | 63 | 2.0 | 2.0 | 0.00 | 0.09 | 0.09 | 95 | 1010.3 |
| 20260502160336 | 43 | 151 | 2.0 | 3.0 | 0.00 | 0.09 | 0.09 | 94 | 1010.3 |
| 20260502152311 | 42 | 111 | 0.0 | 0.0 | 0.00 | 0.09 | 0.09 | 97 | 1010.3 |
| 20260502151808 | 42 | 78 | 1.0 | 1.0 | 0.00 | 0.09 | 0.09 | 97 | 1010.3 |
| 20260502151305 | 42 | 142 | 0.0 | 0.0 | 0.00 | 0.09 | 0.09 | 98 | 1010.6 |
| 20260502150803 | 42 | 66 | 0.0 | 1.0 | 0.00 | 0.09 | 0.09 | 98 | 1010.6 |
| 20260502150259 | 43 | 54 | 1.0 | 1.0 | 0.00 | 0.09 | 0.09 | 97 | 1010.6 |
| 20260502130647 | 40 | 131 | 0.0 | 0.0 | 0.00 | 0.07 | 0.07 | 99 | 1010.9 |
| 20260502130145 | 40 | 129 | 0.0 | 0.0 | 0.00 | 0.07 | 0.07 | 99 | 1010.9 |
| 20260502123630 | 40 | 69 | 1.0 | 1.0 | 0.00 | 0.07 | 0.07 | 99 | 1010.9 |
| 20260502123127 | 40 | 134 | 0.0 | 0.0 | 0.00 | 0.07 | 0.07 | 99 | 1010.9 |
| 20260502122624 | 39 | 126 | 0.0 | 0.0 | 0.00 | 0.07 | 0.07 | 99 | 1010.9 |
| 20260502122120 | 39 | 149 | 0.0 | 0.0 | 0.00 | 0.07 | 0.07 | 99 | 1010.9 |
| 20260502121619 | 39 | 103 | 0.0 | 1.0 | 0.00 | 0.07 | 0.07 | 99 | 1010.9 |
| 20260502121116 | 39 | 142 | 0.0 | 0.0 | 0.00 | 0.07 | 0.07 | 99 | 1010.6 |
| 20260502120612 | 39 | 146 | 0.0 | 1.0 | 0.00 | 0.07 | 0.07 | 99 | 1010.9 |
| 20260502120109 | 39 | 152 | 0.0 | 0.0 | 0.00 | 0.07 | 0.07 | 99 | 1010.9 |
| 20260502115607 | 39 | 130 | 1.0 | 1.0 | 0.00 | 0.07 | 0.07 | 99 | 1010.9 |
| 20260502115102 | 39 | 134 | 0.0 | 0.0 | 0.00 | 0.07 | 0.07 | 99 | 1010.9 |
| 20260502114559 | 38 | 123 | 0.0 | 0.0 | 0.00 | 0.07 | 0.07 | 99 | 1011.4 |
| 20260502114056 | 39 | 121 | 0.0 | 0.0 | 0.00 | 0.07 | 0.07 | 99 | 1010.9 |
| 20260502113553 | 39 | 136 | 0.0 | 0.0 | 0.00 | 0.07 | 0.07 | 99 | 1010.9 |
| 20260502113052 | 39 | 149 | 0.0 | 0.0 | 0.00 | 0.07 | 0.07 | 99 | 1010.9 |
| 20260502112549 | 39 | 141 | 0.0 | 0.0 | 0.00 | 0.07 | 0.07 | 99 | 1010.9 |
| 20260502112047 | 38 | 137 | 0.0 | 0.0 | 0.00 | 0.07 | 0.07 | 99 | 1010.9 |
| 20260502111544 | 38 | 131 | 1.0 | 1.0 | 0.00 | 0.07 | 0.07 | 98 | 1010.9 |
| 20260502111041 | 38 | 136 | 0.0 | 0.0 | 0.00 | 0.07 | 0.07 | 99 | 1010.9 |
| 20260502110538 | 38 | 125 | 0.0 | 1.0 | 0.00 | 0.07 | 0.07 | 98 | 1010.9 |
| 20260502110036 | 38 | 134 | 0.0 | 0.0 | 0.00 | 0.07 | 0.07 | 98 | 1010.9 |
| 20260502105533 | 38 | 130 | 0.0 | 0.0 | 0.00 | 0.07 | 0.07 | 98 | 1010.9 |
| 20260502105031 | 38 | 126 | 0.0 | 0.0 | 0.00 | 0.07 | 0.07 | 98 | 1010.6 |
| 20260502104527 | 38 | 104 | 0.0 | 1.0 | 0.00 | 0.07 | 0.07 | 98 | 1010.6 |
| 20260502104025 | 38 | 111 | 1.0 | 1.0 | 0.00 | 0.07 | 0.07 | 97 | 1010.9 |
| 20260502103523 | 38 | 82 | 1.0 | 1.0 | 0.00 | 0.07 | 0.07 | 97 | 1010.6 |
| 20260502103021 | 38 | 136 | 0.0 | 0.0 | 0.00 | 0.07 | 0.07 | 97 | 1010.6 |
| 20260502102517 | 38 | 128 | 0.0 | 0.0 | 0.00 | 0.07 | 0.07 | 97 | 1010.6 |
| 20260502102014 | 38 | 122 | 0.0 | 0.0 | 0.00 | 0.07 | 0.07 | 97 | 1010.6 |
| 20260502101512 | 38 | 124 | 0.0 | 0.0 | 0.00 | 0.07 | 0.07 | 96 | 1010.6 |
| 20260502101010 | 38 | 102 | 1.0 | 1.0 | 0.00 | 0.07 | 0.07 | 96 | 1010.6 |
| 20260502100508 | 38 | 121 | 0.0 | 0.0 | 0.00 | 0.07 | 0.07 | 96 | 1010.6 |
| 20260502091443 | 38 | 144 | 0.0 | 0.0 | 0.00 | 0.04 | 0.04 | 94 | 1010.9 |
| 20260502090940 | 38 | 133 | 0.0 | 0.0 | 0.07 | 0.04 | 0.04 | 94 | 1010.6 |
| 20260502090437 | 38 | 140 | 0.0 | 0.0 | 0.07 | 0.04 | 0.04 | 94 | 1010.6 |
| 20260502071331 | 40 | 209 | 2.0 | 2.0 | 0.00 | 0.00 | 0.00 | 84 | 1010.9 |
| 20260502070829 | 40 | 212 | 2.0 | 3.0 | 0.00 | 0.00 | 0.00 | 83 | 1011.4 |
| 20260502070327 | 40 | 175 | 1.0 | 1.0 | 0.00 | 0.00 | 0.00 | 83 | 1010.9 |
| 20260502065825 | 41 | 160 | 0.0 | 1.0 | 0.00 | 0.00 | 0.00 | 83 | 1010.9 |
| 20260502065323 | 41 | 144 | 0.0 | 0.0 | 0.00 | 0.00 | 0.00 | 81 | 1010.9 |
| 20260502064821 | 41 | 149 | 0.0 | 0.0 | 0.00 | 0.00 | 0.00 | 80 | 1010.9 |
| 20260502064319 | 41 | 136 | 0.0 | 0.0 | 0.00 | 0.00 | 0.00 | 79 | 1010.9 |
| 20260502063816 | 41 | 184 | 2.0 | 3.0 | 0.00 | 0.00 | 0.00 | 78 | 1011.4 |
| 20260502063314 | 41 | 160 | 2.0 | 3.0 | 0.00 | 0.00 | 0.00 | 76 | 1010.9 |
| 20260502062811 | 41 | 157 | 2.0 | 2.0 | 0.00 | 0.00 | 0.00 | 76 | 1010.9 |
| 20260502062308 | 42 | 169 | 5.0 | 6.0 | 0.00 | 0.00 | 0.00 | 75 | 1010.9 |
| 20260502061807 | 42 | 183 | 2.0 | 3.0 | 0.00 | 0.00 | 0.00 | 73 | 1011.4 |
| 20260502061304 | 42 | 170 | 4.0 | 4.0 | 0.00 | 0.00 | 0.00 | 72 | 1010.9 |
| 20260502060759 | 42 | 202 | 6.0 | 7.0 | 0.00 | 0.00 | 0.00 | 71 | 1011.4 |
| 20260502060255 | 42 | 168 | 6.0 | 7.0 | 0.00 | 0.00 | 0.00 | 70 | 1011.4 |
| 20260502055753 | 43 | 162 | 6.0 | 8.0 | 0.00 | 0.00 | 0.00 | 69 | 1011.4 |
| 20260502055250 | 43 | 189 | 5.0 | 7.0 | 0.00 | 0.00 | 0.00 | 68 | 1011.4 |
| 20260502054749 | 42 | 189 | 4.0 | 6.0 | 0.00 | 0.00 | 0.00 | 67 | 1011.4 |
| 20260502054247 | 43 | 222 | 4.0 | 6.0 | 0.00 | 0.00 | 0.00 | 64 | 1011.7 |
| 20260502053744 | 43 | 211 | 4.0 | 4.0 | 0.00 | 0.00 | 0.00 | 62 | 1011.4 |
| 20260502053241 | 45 | 251 | 5.0 | 6.0 | 0.00 | 0.00 | 0.00 | 60 | 1011.4 |
| 20260502052739 | 44 | 170 | 4.0 | 6.0 | 0.00 | 0.00 | 0.00 | 61 | 1011.4 |
| 20260502052237 | 43 | 168 | 1.0 | 2.0 | 0.00 | 0.00 | 0.00 | 66 | 1011.4 |
| 20260502051735 | 42 | 184 | 2.0 | 2.0 | 0.00 | 0.00 | 0.00 | 67 | 1011.4 |
| 20260502051233 | 42 | 183 | 1.0 | 2.0 | 0.00 | 0.00 | 0.00 | 72 | 1010.9 |
| 20260502050729 | 43 | 193 | 1.0 | 1.0 | 0.00 | 0.00 | 0.00 | 71 | 1010.9 |
| 20260502050225 | 42 | 177 | 2.0 | 2.0 | 0.00 | 0.00 | 0.00 | 64 | 1011.4 |
| 20260502045723 | 43 | 177 | 2.0 | 2.0 | 0.00 | 0.00 | 0.00 | 68 | 1010.9 |
| 20260502045219 | 42 | 199 | 3.0 | 3.0 | 0.00 | 0.00 | 0.00 | 64 | 1010.9 |
| 20260502044716 | 41 | 221 | 3.0 | 4.0 | 0.00 | 0.00 | 0.00 | 67 | 1010.9 |
| 20260502044212 | 41 | 164 | 1.0 | 1.0 | 0.00 | 0.00 | 0.00 | 72 | 1010.9 |
| 20260502043710 | 41 | 156 | 2.0 | 2.0 | 0.00 | 0.00 | 0.00 | 65 | 1010.9 |
| 20260502043208 | 41 | 147 | 2.0 | 2.0 | 0.00 | 0.00 | 0.00 | 70 | 1010.9 |
| 20260502042707 | 40 | 164 | 2.0 | 3.0 | 0.00 | 0.00 | 0.00 | 65 | 1010.9 |
| 20260502042204 | 41 | 89 | 0.0 | 1.0 | 0.00 | 0.00 | 0.00 | 72 | 1010.6 |
| 20260502041702 | 42 | 174 | 2.0 | 2.0 | 0.00 | 0.00 | 0.00 | 63 | 1011.4 |
| 20260502041158 | 39 | 208 | 3.0 | 3.0 | 0.00 | 0.00 | 0.00 | 70 | 1010.9 |
| 20260502040655 | 40 | 153 | 0.0 | 0.0 | 0.00 | 0.00 | 0.00 | 75 | 1010.9 |
| 20260502040153 | 41 | 169 | 1.0 | 1.0 | 0.00 | 0.00 | 0.00 | 72 | 1011.4 |
| 20260502035649 | 42 | 155 | 0.0 | 0.0 | 0.00 | 0.00 | 0.00 | 68 | 1010.9 |
| 20260502035146 | 40 | 179 | 2.0 | 2.0 | 0.00 | 0.00 | 0.00 | 67 | 1010.9 |
| 20260502034643 | 40 | 148 | 0.0 | 0.0 | 0.00 | 0.00 | 0.00 | 70 | 1010.9 |
| 20260502034142 | 40 | 150 | 0.0 | 0.0 | 0.00 | 0.00 | 0.00 | 70 | 1010.9 |
| 20260502033639 | 39 | 142 | 0.0 | 0.0 | 0.00 | 0.00 | 0.00 | 71 | 1010.9 |
| 20260502033137 | 39 | 143 | 0.0 | 0.0 | 0.00 | 0.00 | 0.00 | 71 | 1010.6 |
| 20260502032632 | 39 | 146 | 0.0 | 0.0 | 0.00 | 0.00 | 0.00 | 70 | 1010.6 |
| 20260502032129 | 40 | 145 | 0.0 | 0.0 | 0.00 | 0.00 | 0.00 | 69 | 1010.6 |
| 20260502031627 | 40 | 144 | 0.0 | 0.0 | 0.00 | 0.00 | 0.00 | 65 | 1010.6 |
| 20260502031124 | 39 | 157 | 1.0 | 1.0 | 0.00 | 0.00 | 0.00 | 67 | 1010.6 |
| 20260502030623 | 39 | 152 | 1.0 | 1.0 | 0.00 | 0.00 | 0.00 | 68 | 1010.9 |
| 20260502030121 | 39 | 195 | 2.0 | 2.0 | 0.00 | 0.00 | 0.00 | 68 | 1010.6 |
| 20260502025618 | 40 | 140 | 0.0 | 0.0 | 0.00 | 0.00 | 0.00 | 66 | 1010.6 |
| 20260502025116 | 41 | 140 | 1.0 | 1.0 | 0.00 | 0.00 | 0.00 | 65 | 1010.6 |
| 20260502024614 | 41 | 157 | 1.0 | 1.0 | 0.00 | 0.00 | 0.00 | 64 | 1010.6 |
| 20260502024111 | 41 | 163 | 2.0 | 2.0 | 0.00 | 0.00 | 0.00 | 63 | 1010.6 |
| 20260502023609 | 40 | 157 | 0.0 | 0.0 | 0.00 | 0.00 | 0.00 | 65 | 1010.6 |
| 20260502023106 | 40 | 160 | 1.0 | 1.0 | 0.00 | 0.00 | 0.00 | 67 | 1010.6 |
| 20260502022603 | 40 | 164 | 1.0 | 1.0 | 0.00 | 0.00 | 0.00 | 68 | 1010.9 |
| 20260502022100 | 40 | 139 | 0.0 | 0.0 | 0.00 | 0.00 | 0.00 | 67 | 1010.6 |
| 20260502021557 | 41 | 132 | 0.0 | 0.0 | 0.00 | 0.00 | 0.00 | 65 | 1010.6 |
| 20260502021054 | 41 | 137 | 0.0 | 0.0 | 0.00 | 0.00 | 0.00 | 65 | 1010.9 |
| 20260502020551 | 41 | 139 | 0.0 | 0.0 | 0.00 | 0.00 | 0.00 | 63 | 1010.9 |
| 20260502020048 | 41 | 132 | 1.0 | 1.0 | 0.00 | 0.00 | 0.00 | 66 | 1010.6 |
| 20260502015546 | 41 | 144 | 0.0 | 1.0 | 0.00 | 0.00 | 0.00 | 66 | 1010.9 |
| 20260502015042 | 42 | 174 | 1.0 | 2.0 | 0.00 | 0.00 | 0.00 | 65 | 1010.6 |
| 20260502014539 | 42 | 149 | 0.0 | 0.0 | 0.00 | 0.00 | 0.00 | 64 | 1010.9 |
| 20260502014037 | 42 | 149 | 0.0 | 0.0 | 0.00 | 0.00 | 0.00 | 63 | 1010.9 |
| 20260502013532 | 42 | 145 | 0.0 | 1.0 | 0.00 | 0.00 | 0.00 | 62 | 1010.6 |
| 20260502013028 | 42 | 150 | 1.0 | 1.0 | 0.00 | 0.00 | 0.00 | 62 | 1010.6 |
| 20260502012526 | 42 | 153 | 1.0 | 2.0 | 0.00 | 0.00 | 0.00 | 62 | 1010.6 |
| 20260502012023 | 42 | 146 | 0.0 | 0.0 | 0.00 | 0.00 | 0.00 | 65 | 1010.6 |
| 20260502011520 | 41 | 151 | 0.0 | 0.0 | 0.00 | 0.00 | 0.00 | 64 | 1010.6 |
| 20260502011016 | 41 | 146 | 0.0 | 0.0 | 0.00 | 0.00 | 0.00 | 64 | 1010.9 |
| 20260502010514 | 41 | 146 | 0.0 | 0.0 | 0.00 | 0.00 | 0.00 | 65 | 1010.6 |
| 20260502010010 | 42 | 144 | 0.0 | 0.0 | 0.00 | 0.00 | 0.00 | 63 | 1010.6 |